Weather observations for the past three days for
Frankfort Municipal Airport
Imperial (Metric)
Date Time (edt) Wind (mph) Vis. (mi.) Weather Sky Cond. Temperature (ºF) Relative Humidity Wind Chill (°F) Heat Index (°F) Pressure Precipitation (in)
Air Dwpt 6 hour altimeter (in) sea level (mb) 1 hr 3 hr 6 hr
Max. Min.
20 12:35 N 8 10.00 Mostly Cloudy BKN046 BKN050 75.2 59 57% 78 30.15 0.0
20 12:15 Calm 10.00 Partly Cloudy FEW045 SCT050 75.2 59 57% 78 30.15 0.0
20 11:55 Vrbl 3 10.00 Fair CLR 75.2 57.2 54% 78 30.15 0.0
20 11:35 Calm 10.00 A Few Clouds FEW032 75.2 57.2 54% 78 30.15 0.0
20 11:15 Calm 10.00 A Few Clouds FEW032 73.4 62.6 69% 30.15 0.0
20 10:55 Calm 10.00 Fair CLR 73.4 62.6 69% 30.15 0.0
20 10:35 Calm 10.00 Fair CLR 71.6 62.6 73% 30.14 0.0
20 10:15 Calm 10.00 Fair CLR 71.6 62.6 73% 30.14 0.0
20 09:55 Calm 10.00 Fair CLR 69.8 64.4 83% 30.14 0.0
20 09:35 Calm 10.00 Fair CLR 68 64.4 88% 30.15 0.0
20 09:15 E 5 10.00 Fair CLR 66.2 64.4 94% 30.14 0.0
20 08:55 E 5 10.00 Fair CLR 64.4 64.4 100% 30.14 0.0
20 08:35 Calm 10.00 Fair CLR 64.4 64.4 100% 30.14 0.0
20 08:15 Calm 10.00 Fair CLR 60.8 60.8 100% 30.13 0.0
20 07:55 Calm 9.00 Fair CLR 59 59 100% 30.12 0.0
20 07:35 Calm 10.00 Fair CLR 57.2 57.2 100% 30.12 0.0
20 07:15 Calm 9.00 Fair CLR 57.2 57.2 100% 30.12 0.0
20 06:55 Calm 4.00 Fog/Mist CLR 55.4 55.4 100% 30.12 0.0
20 06:35 Calm 8.00 A Few Clouds FEW048 FEW110 55.4 55.4 100% 30.12 0.0
20 06:15 Calm 10.00 Mostly Cloudy SCT050 BKN110 57.2 57.2 100% 30.11 0.0
20 05:35 Calm 10.00 Overcast BKN050 OVC110 57.2 57.2 100% 30.11 0.0
20 05:15 Calm 10.00 Overcast OVC050 57.2 57.2 100% 30.11 0.0
20 04:55 NE 3 10.00 Overcast OVC055 57.2 57.2 100% 30.11 0.0
20 04:35 Calm 10.00 Overcast OVC055 57.2 57.2 100% 30.12 0.0
20 04:15 Calm 10.00 Overcast OVC050 59 57.2 94% 30.11 0.0
20 03:55 Calm 10.00 Overcast OVC050 59 59 100% 30.12 0.0
20 03:35 Calm 10.00 Overcast OVC050 59 59 100% 30.12 0.0
20 03:15 Calm 10.00 Overcast OVC050 59 59 100% 30.12 0.0
20 02:55 Calm 10.00 Overcast OVC055 59 59 100% 30.12 0.0
20 02:35 Calm 10.00 Overcast OVC050 59 59 100% 30.13 0.0
20 02:15 Calm 10.00 Overcast OVC050 59 59 100% 30.13 0.0
20 01:55 Calm 10.00 Overcast OVC055 59 59 100% 30.13 0.0
20 01:35 E 3 10.00 Overcast FEW043 OVC050 59 59 100% 30.12 0.0
20 01:15 E 5 10.00 Overcast FEW043 OVC050 59 59 100% 30.12 0.0
20 00:55 NE 3 10.00 Overcast OVC055 60.8 60.8 100% 30.13 0.0
20 00:35 Calm 10.00 Overcast OVC055 60.8 60.8 100% 30.13 0.0
20 00:15 Calm 6.00 Fog/Mist OVC050 62.6 62.6 100% 30.13 0.0
19 23:55 NE 5 10.00 Overcast OVC050 60.8 60.8 100% 30.12 0.0
19 23:35 E 3 10.00 Overcast OVC055 62.6 62.6 100% 30.12 0.0
19 23:15 Calm 10.00 Overcast BKN050 OVC055 62.6 62.6 100% 30.12 0.0
19 22:55 Calm 10.00 Overcast OVC050 62.6 62.6 100% 30.12 0.0
19 22:35 NE 5 10.00 Overcast SCT040 OVC048 62.6 62.6 100% 30.12 0.0
19 22:15 E 5 10.00 Overcast SCT042 OVC049 62.6 60.8 94% 30.11 0.0
19 21:55 E 7 10.00 Mostly Cloudy BKN050 BKN060 64.4 62.6 94% 30.11 0.0
19 21:35 NE 6 10.00 Fair CLR 66.2 62.6 88% 30.12 0.0
19 21:15 NE 6 10.00 Fair CLR 68 60.8 78% 30.13 0.0
19 20:55 NE 6 10.00 Fair CLR 68 60.8 78% 30.12 0.0
19 20:15 NE 6 10.00 A Few Clouds FEW060 69.8 60.8 73% 30.12 0.0
19 19:55 NE 5 10.00 Fair CLR 71.6 62.6 73% 30.12 0.0
19 19:35 E 3 10.00 A Few Clouds FEW060 69.8 64.4 83% 30.13 0.0
19 19:15 E 6 10.00 Mostly Cloudy BKN050 BKN060 71.6 62.6 73% 30.12 0.0
19 18:55 Calm 10.00 Mostly Cloudy BKN049 BKN055 73.4 62.6 69% 30.12 0.0
19 18:35 SE 3 10.00 Mostly Cloudy BKN050 BKN055 75.2 60.8 61% 77 30.12 0.0
19 18:15 Calm 10.00 Mostly Cloudy SCT049 BKN055 73.4 60.8 65% 30.12 0.0
19 17:55 E 6 10.00 Overcast BKN048 OVC055 75.2 59 57% 78 30.12 0.0
19 17:35 Calm 10.00 Mostly Cloudy FEW050 BKN055 75.2 57.2 54% 78 30.13 0.0
19 17:15 E 5 10.00 Mostly Cloudy BKN050 BKN055 73.4 57.2 57% 30.13 0.0
19 16:55 Calm 10.00 Partly Cloudy SCT055 75.2 55.4 50% 78 30.13 0.0
19 16:35 E 5 10.00 Mostly Cloudy SCT049 BKN055 73.4 59 61% 30.14 0.0
19 16:15 Calm 10.00 Mostly Cloudy SCT047 BKN055 75.2 57.2 54% 78 30.14 0.0
19 15:55 Vrbl 3 10.00 Mostly Cloudy SCT048 BKN055 75.2 59 57% 78 30.15 0.0
19 15:35 E 9 10.00 Mostly Cloudy BKN050 BKN055 75.2 59 57% 78 30.16 0.0
19 15:15 SE 5 10.00 Mostly Cloudy BKN050 73.4 57.2 57% 30.16 0.0
19 14:55 Vrbl 5 10.00 Mostly Cloudy BKN046 BKN050 73.4 59 61% 30.17 0.0
19 14:35 NE 6 10.00 Overcast BKN046 OVC055 73.4 59 61% 30.17 0.0
19 14:15 SE 3 10.00 Mostly Cloudy BKN050 75.2 57.2 54% 78 30.18 0.0
19 13:55 NE 5 10.00 Overcast SCT044 OVC050 71.6 59 65% 30.19 0.0
19 13:35 Vrbl 6 10.00 Mostly Cloudy BKN044 BKN050 73.4 59 61% 30.19 0.0
19 13:15 Calm 10.00 Partly Cloudy SCT049 73.4 57.2 57% 30.19 0.0
19 12:55 E 6 10.00 A Few Clouds FEW049 73.4 57.2 57% 30.19 0.0
19 12:35 E 3 10.00 Mostly Cloudy BKN049 73.4 57.2 57% 30.19 0.0
19 12:15 NE 5 10.00 Overcast SCT043 BKN048 OVC055 73.4 59 61% 30.2 0.0
19 11:55 S 5 10.00 Mostly Cloudy BKN047 71.6 59 65% 30.2 0.0
19 11:35 Calm 10.00 Fair CLR 71.6 59 65% 30.2 0.0
19 11:15 Calm 10.00 Fair CLR 71.6 62.6 73% 30.2 0.0
19 10:55 Vrbl 5 10.00 Fair CLR 69.8 60.8 73% 30.2 0.0
19 10:35 SE 6 10.00 Fair CLR 69.8 62.6 78% 30.2 0.0
19 10:15 SE 5 10.00 Fair CLR 68 62.6 83% 30.2 0.0
19 09:55 E 5 10.00 Fair CLR 68 62.6 83% 30.21 0.0
19 09:35 Calm 10.00 Fair CLR 68 60.8 78% 30.21 0.0
19 09:15 E 5 10.00 Fair CLR 66.2 60.8 83% 30.21 0.0
19 08:55 E 3 10.00 Fair CLR 64.4 62.6 94% 30.21 0.0
19 08:35 E 6 10.00 Fair CLR 62.6 62.6 100% 30.21 0.0
19 08:15 Vrbl 3 10.00 Fair CLR 62.6 62.6 100% 30.21 0.0
19 07:55 Calm 10.00 Fair CLR 60.8 60.8 100% 30.2 0.0
19 07:35 NE 5 10.00 Fair CLR 59 57.2 94% 30.2 0.0
19 07:15 NE 5 10.00 Fair CLR 55.4 55.4 100% 30.19 0.0
19 06:55 Calm 10.00 Fair CLR 55.4 55.4 100% 30.19 0.0
19 06:35 NE 6 10.00 Fair CLR 55.4 55.4 100% 30.18 0.0
19 06:15 NE 5 10.00 Fair CLR 57.2 57.2 100% 30.18 0.0
19 05:55 NE 3 10.00 Partly Cloudy FEW043 SCT060 55.4 55.4 100% 30.18 0.0
19 05:35 Calm 10.00 Mostly Cloudy FEW034 BKN042 BKN060 55.4 55.4 100% 30.18 0.0
19 05:15 NE 3 10.00 Mostly Cloudy FEW030 BKN039 BKN060 57.2 57.2 100% 30.18 0.0
19 04:55 NE 6 10.00 Mostly Cloudy FEW032 BKN040 BKN060 57.2 57.2 100% 30.17 0.0
19 04:35 NE 5 10.00 Mostly Cloudy SCT033 SCT041 BKN060 57.2 57.2 100% 30.17 0.0
19 04:15 NE 6 10.00 Overcast SCT034 BKN043 OVC060 59 57.2 94% 30.17 0.0
19 03:55 NE 7 10.00 Overcast SCT036 BKN043 OVC060 57.2 57.2 100% 30.17 0.0
19 03:35 NE 6 10.00 Overcast FEW032 SCT037 OVC060 57.2 57.2 100% 30.17 0.0
19 03:15 NE 6 10.00 Overcast FEW039 OVC060 59 57.2 94% 30.17 0.0
19 02:55 NE 6 10.00 Overcast FEW039 FEW044 OVC060 59 59 100% 30.17 0.0
19 02:35 NE 7 10.00 Mostly Cloudy SCT039 BKN065 59 59 100% 30.17 0.0
19 02:15 NE 6 10.00 Mostly Cloudy FEW037 SCT045 BKN065 59 59 100% 30.18 0.0
19 01:55 N 6 10.00 Mostly Cloudy FEW034 SCT041 BKN047 59 59 100% 30.18 0.0
19 01:35 N 6 10.00 Mostly Cloudy SCT036 BKN065 59 59 100% 30.18 0.0
19 01:15 NE 6 10.00 Mostly Cloudy FEW034 BKN060 59 59 100% 30.18 0.0
19 00:55 N 6 10.00 Mostly Cloudy BKN060 59 59 100% 30.18 0.0
19 00:35 N 7 10.00 Mostly Cloudy BKN065 60.8 59 94% 30.18 0.0
19 00:15 N 6 10.00 Mostly Cloudy BKN070 60.8 59 94% 30.18 0.0
18 23:55 N 6 10.00 Overcast OVC070 60.8 59 94% 30.17 0.0
18 23:35 N 7 10.00 Mostly Cloudy BKN070 60.8 59 94% 30.17 0.0
18 23:15 N 7 10.00 Mostly Cloudy BKN070 60.8 59 94% 30.17 0.0
18 22:55 N 6 10.00 Mostly Cloudy FEW045 BKN070 60.8 59 94% 30.17 0.0
18 22:35 N 7 10.00 Mostly Cloudy FEW045 BKN070 62.6 59 88% 30.17 0.0
18 22:15 N 6 10.00 Mostly Cloudy SCT043 BKN070 62.6 59 88% 30.16 0.0
18 21:55 N 6 10.00 Partly Cloudy FEW039 SCT045 62.6 59 88% 30.15 0.0
18 21:35 N 7 10.00 Fair CLR 64.4 59 83% 30.15 0.0
18 21:15 N 6 10.00 Fair CLR 64.4 60.8 88% 30.14 0.0
18 20:55 N 6 10.00 Fair CLR 66.2 60.8 83% 30.15 0.0
18 20:35 N 7 10.00 Fair CLR 68 59 73% 30.15 0.0
18 20:15 N 7 10.00 Fair CLR 68 57.2 69% 30.15 0.0
18 19:55 N 9 10.00 Fair CLR 69.8 57.2 64% 30.15 0.0
18 19:35 N 9 10.00 Fair CLR 69.8 57.2 64% 30.14 0.0
18 19:15 N 9 10.00 A Few Clouds FEW055 71.6 57.2 61% 30.14 0.0
18 18:55 N 8 10.00 Mostly Cloudy BKN055 69.8 57.2 64% 30.14 0.0
18 18:35 N 9 G 15 10.00 Partly Cloudy SCT050 71.6 57.2 61% 30.15 0.0
18 18:15 N 7 10.00 Partly Cloudy FEW043 SCT050 71.6 57.2 61% 30.15 0.0
18 17:55 N 9 10.00 A Few Clouds FEW047 71.6 57.2 61% 30.15 0.0
18 17:35 N 7 G 14 10.00 A Few Clouds FEW043 FEW050 71.6 57.2 61% 30.15 0.0
18 17:15 N 9 10.00 Fair CLR 71.6 57.2 61% 30.15 0.0
18 16:55 N 10 10.00 Partly Cloudy SCT043 71.6 57.2 61% 30.15 0.0
18 16:35 N 10 10.00 Mostly Cloudy BKN043 69.8 57.2 64% 30.15 0.0
18 16:15 N 10 G 18 10.00 Mostly Cloudy BKN040 71.6 57.2 61% 30.15 0.0
18 15:55 N 14 G 21 10.00 Mostly Cloudy BKN041 71.6 57.2 61% 30.15 0.0
18 15:35 N 12 G 18 10.00 Partly Cloudy SCT041 71.6 59 65% 30.16 0.0
18 15:15 N 14 10.00 Partly Cloudy SCT040 71.6 57.2 61% 30.16 0.0
18 14:55 NE 10 10.00 Partly Cloudy SCT040 71.6 57.2 61% 30.16 0.0
18 14:35 N 14 10.00 Fair CLR 71.6 57.2 61% 30.16 0.0
18 14:15 N 14 10.00 A Few Clouds FEW038 71.6 57.2 61% 30.16 0.0
18 13:55 N 12 G 17 10.00 Partly Cloudy SCT038 71.6 59 65% 30.16 0.0
18 13:35 N 10 G 16 10.00 A Few Clouds FEW037 71.6 57.2 61% 30.17 0.0
18 13:15 N 16 10.00 Partly Cloudy SCT037 69.8 57.2 64% 30.17 0.0
18 12:55 N 9 G 18 10.00 Fair CLR 69.8 57.2 64% 30.18 0.0
18 12:35 N 12 G 17 10.00 A Few Clouds FEW036 69.8 57.2 64% 30.17 0.0
18 12:15 N 10 G 16 10.00 A Few Clouds FEW035 68 57.2 69% 30.17 0.0
18 11:55 NE 13 10.00 Partly Cloudy SCT032 68 57.2 69% 30.17 0.0
18 11:35 N 9 G 17 10.00 A Few Clouds FEW031 68 57.2 69% 30.16 0.0
18 11:15 N 14 10.00 Fair CLR 68 57.2 69% 30.16 0.0
18 10:55 N 13 G 20 10.00 Fair CLR 66.2 57.2 73% 30.16 0.0
18 10:35 N 14 10.00 Fair CLR 66.2 57.2 73% 30.16 0.0
18 10:15 N 13 G 20 10.00 Fair CLR 66.2 57.2 73% 30.16 0.0
18 09:55 NE 13 10.00 Fair CLR 64.4 57.2 78% 30.16 0.0
18 09:15 NE 8 G 16 10.00 Fair CLR 62.6 60.8 94% 30.16 0.0
18 08:35 NE 9 10.00 Fair CLR 62.6 59 88% 30.15 0.0
18 08:15 N 7 10.00 Fair CLR 60.8 60.8 100% 30.14 0.0
18 07:55 N 9 10.00 Fair CLR 60.8 59 94% 30.14 0.0
18 07:35 N 7 10.00 Fair CLR 59 59 100% 30.13 0.0
18 07:15 N 7 10.00 Fair CLR 59 59 100% 30.12 0.0
18 06:55 N 7 10.00 Fair CLR 59 59 100% 30.11 0.0
18 06:35 N 6 G 12 10.00 Fair CLR 59 59 100% 30.1 0.0
18 06:15 N 9 10.00 Fair CLR 59 59 100% 30.09 0.0
18 05:55 N 10 10.00 Fair CLR 59 59 100% 30.09 0.0
18 05:35 N 10 10.00 Fair CLR 59 59 100% 30.08 0.0
18 05:15 N 12 10.00 Fair CLR 59 59 100% 30.08 0.0
18 04:55 N 13 G 20 10.00 Fair CLR 60.8 59 94% 30.08 0.0
18 04:35 N 14 10.00 Fair CLR 60.8 59 94% 30.07 0.0
18 04:15 N 10 10.00 A Few Clouds FEW047 FEW055 60.8 59 94% 30.06 0.0
18 03:55 N 10 10.00 Mostly Cloudy BKN047 BKN055 60.8 59 94% 30.06 0.0
18 03:35 N 8 10.00 Overcast OVC049 59 59 100% 30.07 0.0
18 03:15 N 8 10.00 Overcast OVC050 60.8 59 94% 30.07 0.0
18 02:55 N 9 10.00 Overcast OVC050 60.8 59 94% 30.07 0.0
18 02:35 N 8 10.00 Overcast OVC050 60.8 60.8 100% 30.07 0.0
18 02:15 N 9 10.00 Overcast OVC050 60.8 60.8 100% 30.07 0.0
18 01:55 N 8 10.00 Overcast OVC055 60.8 60.8 100% 30.07 0.0
18 01:35 N 7 10.00 Overcast OVC050 62.6 60.8 94% 30.08 0.0
18 01:15 N 7 10.00 Overcast OVC055 62.6 62.6 100% 30.08 0.0
18 00:55 N 6 10.00 Overcast OVC050 62.6 60.8 94% 30.08 0.0
18 00:35 N 6 10.00 Overcast BKN050 OVC060 62.6 62.6 100% 30.07 0.0
18 00:15 N 5 10.00 Overcast OVC055 62.6 62.6 100% 30.07 0.0
17 23:55 N 5 10.00 Overcast OVC055 64.4 62.6 94% 30.06 0.0
17 23:35 N 6 10.00 Overcast OVC055 64.4 62.6 94% 30.06 0.0
17 23:15 N 6 10.00 Overcast BKN055 OVC065 66.2 62.6 88% 30.05 0.0
17 22:55 N 5 10.00 Overcast OVC055 66.2 62.6 88% 30.04 0.0
17 22:35 NE 7 10.00 Overcast OVC050 68 62.6 83% 30.04 0.0
17 22:15 N 8 10.00 Overcast OVC050 68 62.6 83% 30.03 0.0
17 21:55 N 9 10.00 Mostly Cloudy BKN048 BKN055 69.8 62.6 78% 30.02 0.0
17 21:35 N 13 10.00 A Few Clouds FEW048 69.8 62.6 78% 30.02 0.0
17 21:15 N 12 10.00 Fair CLR 71.6 62.6 73% 30.01 0.0
17 20:55 N 14 10.00 Fair CLR 73.4 62.6 69% 30 0.0
17 20:35 N 12 10.00 Fair CLR 73.4 64.4 74% 29.99 0.0
17 20:15 N 8 G 14 10.00 Fair CLR 75.2 64.4 69% 77 29.98 0.0
17 19:55 N 12 G 18 10.00 Fair CLR 75.2 62.6 65% 77 29.97 0.0
17 19:35 N 17 10.00 Fair CLR 77 64.4 65% 79 29.97 0.0
17 19:15 N 8 10.00 Fair CLR 77 64.4 65% 79 29.96 0.0
17 18:55 N 8 G 18 10.00 Fair CLR 78.8 64.4 61% 81 29.96 0.0
17 18:35 N 14 G 20 10.00 Fair CLR 78.8 64.4 61% 81 29.95 0.0
17 18:15 N 12 G 20 10.00 Fair CLR 78.8 66.2 65% 81 29.94 0.0
17 17:55 N 14 G 20 10.00 A Few Clouds FEW041 FEW050 FEW055 78.8 66.2 65% 81 29.93 0.0
17 17:35 NW 17 G 23 10.00 Mostly Cloudy SCT042 SCT050 BKN055 80.6 68 66% 83 29.93 0.0
17 17:15 N 14 10.00 Mostly Cloudy BKN042 BKN050 80.6 68 66% 83 29.93 0.0
17 16:55 NW 17 10.00 Fair CLR 80.6 68 66% 83 29.93 0.0
17 16:35 NW 12 G 21 10.00 Fair CLR 80.6 69.8 70% 84 29.93 0.0
17 15:55 N 14 G 20 10.00 Mostly Cloudy FEW033 SCT050 BKN055 78.8 71.6 79% 82 29.95 0.0
17 15:35 NW 14 G 23 10.00 Mostly Cloudy FEW033 BKN040 BKN050 77 71.6 83% 78 29.95 0.0
17 15:15 NW 13 10.00 A Few Clouds FEW037 FEW043 FEW049 82.4 71.6 70% 87 29.93 0.0
17 14:55 NW 12 G 17 10.00 Fair CLR 82.4 71.6 70% 87 29.93 0.0
17 14:35 NW 8 G 16 10.00 Fair CLR 82.4 73.4 74% 88 29.94 0.0
17 14:15 NW 6 G 12 10.00 Partly Cloudy FEW038 FEW065 SCT075 80.6 75.2 84% 86 29.94 0.0
17 13:55 W 8 4.00 Light Rain Haze SCT027 SCT044 BKN065 77 73.4 89% 78 29.95 0.0
17 13:35 NW 13 10.00 Mostly Cloudy BKN025 BKN043 BKN050 78.8 75.2 89% 82 29.94 0.0
17 13:15 W 9 10.00 Partly Cloudy SCT023 80.6 75.2 84% 86 29.94 0.0
17 12:55 W 8 G 15 10.00 A Few Clouds FEW021 FEW027 80.6 77 89% 87 29.94 0.0
Date Time (edt) Wind (mph) Vis. (mi.) Weather Sky Cond. Air Dwpt Max. Min. Relative Humidity Wind Chill (°F) Heat Index (°F) altimeter (in) sea level (mb) 1 hr 3 hr 6 hr
6 hour
Temperature (ºF) Pressure Precipitation (in)